Cfl Racer — PJMV — position and weather

sailwx.info

Track history (hours):
 
Tides and Currents Weather Stations Pressure Air Temp Water Temp Dewpoint Dewpoint Depression Visibility Wind Speed Wind Dir Waves Ship Positions

Cfl Racer

Last reported at 2014-Jul-30 22:33 UTC. Time now 2014-Jul-31 19:43 UTC.
Position N 49°04' W 003°00'.

Length 83 m; draft 3.2 m.

Type: Cargo ship. MMSI: 306762000.

Date/timePositionNaut miles runAvg speedWind from/ knotsBaromVisibWave heightAir tempDewpointWater temp
2014-Jul-30 22:33N 49°04' W 003°00'10 9.9
2014-Jul-30 21:33N 48°57' W 002°50'9 8.9
2014-Jul-30 20:33N 48°49' W 002°44'16 8.1
2014-Jul-30 18:33N 48°33' W 002°42'1 0.3
2014-Jul-30 16:33N 48°32' W 002°43'0 0.0
2014-Jul-30 15:33N 48°32' W 002°43'0 0.0
2014-Jul-30 12:21N 48°32' W 002°43'0 0.0
2014-Jul-30 09:14N 48°32' W 002°43'0 0.0
2014-Jul-30 08:33N 48°32' W 002°43'0 0.0
2014-Jul-30 07:33N 48°32' W 002°43'173 4.1
2014-Jul-28 13:33N 50°35' E 000°25'1110.7
2014-Jul-28 12:33N 50°41' E 000°39'3410.5
2014-Jul-28 09:18N 51°02' E 001°22'1013.6
2014-Jul-28 08:33N 51°09' E 001°32'1312.6
2014-Jul-28 07:33N 51°22' E 001°33'1111.2
2014-Jul-28 06:34N 51°29' E 001°19'1111.3
2014-Jul-28 05:33N 51°29' E 001°01'1212.3
2014-Jul-28 04:33N 51°30' E 000°41'1211.8
2014-Jul-28 03:34N 51°27' E 000°23'8 8.2
2014-Jul-28 02:34N 51°30' E 000°10'0 0.1
2014-Jul-28 01:32N 51°30' E 000°10'0 0.0
2014-Jul-28 00:32N 51°30' E 000°10'0 0.0
2014-Jul-27 23:32N 51°30' E 000°10'0 0.0
2014-Jul-27 22:32N 51°30' E 000°10'0 0.0
2014-Jul-27 21:32N 51°30' E 000°10'0 0.0
2014-Jul-27 20:32N 51°30' E 000°10'0 0.0
2014-Jul-27 19:32N 51°30' E 000°10'0 0.0
2014-Jul-27 18:32N 51°30' E 000°10'0 0.0
2014-Jul-27 17:32N 51°30' E 000°10'0 0.0
2014-Jul-27 16:29N 51°30' E 000°10'0 0.0
2014-Jul-27 15:32N 51°30' E 000°10'0 0.0
2014-Jul-27 14:32N 51°30' E 000°10'0 0.0
2014-Jul-27 13:32N 51°30' E 000°10'0 0.0
2014-Jul-27 12:32N 51°30' E 000°10'0 0.0
2014-Jul-27 11:32N 51°30' E 000°10'0 0.0
2014-Jul-27 10:32N 51°30' E 000°10'0 0.0
2014-Jul-27 09:29N 51°30' E 000°10'0 0.0
2014-Jul-27 08:32N 51°30' E 000°10'0 0.0
2014-Jul-27 07:29N 51°30' E 000°10'0 0.0
2014-Jul-27 06:32N 51°30' E 000°10'0 0.0
2014-Jul-27 05:32N 51°30' E 000°10'0 0.0
2014-Jul-27 04:32N 51°30' E 000°10'0 0.0
2014-Jul-27 03:32N 51°30' E 000°10'0 0.0
2014-Jul-27 02:29N 51°30' E 000°10'0 0.1
2014-Jul-27 01:30N 51°30' E 000°11'0 0.0
2014-Jul-27 00:33N 51°30' E 000°11'0 0.0
2014-Jul-26 23:33N 51°30' E 000°11'0 0.0
2014-Jul-26 22:33N 51°30' E 000°11'0 0.0
2014-Jul-26 21:33N 51°30' E 000°11'0 0.0
2014-Jul-26 20:33N 51°30' E 000°11'0 0.1
2014-Jul-26 19:33N 51°29' E 000°11'0 0.0
2014-Jul-26 18:33N 51°29' E 000°11'0 0.0
2014-Jul-26 17:33N 51°29' E 000°11'0 0.0
2014-Jul-26 16:33N 51°29' E 000°11'0 0.0
2014-Jul-26 15:33N 51°29' E 000°11'0 0.0
2014-Jul-26 14:33N 51°29' E 000°11'6 6.1
2014-Jul-26 13:33N 51°27' E 000°20'6 6.3
2014-Jul-26 12:33N 51°30' E 000°29'9 8.9
2014-Jul-26 11:33N 51°30' E 000°43'10 9.7
2014-Jul-26 10:33N 51°31' E 000°59'0 0.4
2014-Jul-26 09:33N 51°31' E 000°59'0 0.0
2014-Jul-26 08:32N 51°31' E 000°59'0 0.0
2014-Jul-26 06:24N 51°31' E 000°60'0 0.0
2014-Jul-26 05:27N 51°31' E 000°60'0 0.0
2014-Jul-26 04:27N 51°31' E 000°60'0 0.0
2014-Jul-26 03:30N 51°31' E 000°60'0 0.0
2014-Jul-26 02:33N 51°31' E 000°60'0 0.0
2014-Jul-26 01:33N 51°31' E 000°60'0 0.1
2014-Jul-26 00:26N 51°31' E 000°59'0 0.1
2014-Jul-25 23:33N 51°31' E 000°59'0 0.0
2014-Jul-25 22:32N 51°31' E 000°59'0 0.0
2014-Jul-25 21:32N 51°31' E 000°59'0 0.0
2014-Jul-25 20:32N 51°31' E 000°59'0 0.0
2014-Jul-25 19:32N 51°31' E 000°59'0 0.0
2014-Jul-25 18:32N 51°31' E 000°60'0 0.1
2014-Jul-25 17:26N 51°31' E 000°60'0 0.0
2014-Jul-25 16:26N 51°31' E 000°60'0 0.0
2014-Jul-25 15:32N 51°31' E 000°60'0 0.0
2014-Jul-25 14:32N 51°31' E 000°60'0 0.0
2014-Jul-25 13:23N 51°31' E 000°60'0 0.0
2014-Jul-25 12:34N 51°31' E 000°60'6 5.8
2014-Jul-25 11:34N 51°34' E 001°07'1110.9
2014-Jul-25 10:34N 51°41' E 001°20'1211.7
2014-Jul-25 09:34N 51°49' E 001°35'10 9.9
2014-Jul-25 08:34N 51°58' E 001°41'1312.8
2014-Jul-25 07:34N 52°11' E 001°45'1312.8
2014-Jul-25 06:34N 52°23' E 001°49'1313.3
2014-Jul-25 05:33N 52°37' E 001°53'1312.7
2014-Jul-25 04:34N 52°47' E 001°42'1211.7
2014-Jul-25 03:34N 52°56' E 001°29'1110.7
2014-Jul-25 02:33N 53°01' E 001°13'1110.0
2014-Jul-25 01:26N 53°07' E 000°58'9 9.8
2014-Jul-25 00:31N 53°13' E 000°46'1010.0
2014-Jul-24 23:33N 53°20' E 000°35'1010.2
2014-Jul-24 22:34N 53°27' E 000°24'1010.0
2014-Jul-24 21:34N 53°33' E 000°09'1212.2
2014-Jul-24 20:33N 53°38' W 000°09'1 1.4
2014-Jul-24 19:34N 53°38' W 000°12'0 0.0
2014-Jul-24 18:32N 53°38' W 000°12'0 0.0
2014-Jul-24 17:29N 53°38' W 000°12'0 0.0
2014-Jul-24 16:29N 53°38' W 000°12'0 0.0
2014-Jul-24 15:29N 53°38' W 000°12'0 0.0
2014-Jul-24 14:32N 53°38' W 000°12'0 0.0
2014-Jul-24 13:26N 53°38' W 000°12'0 0.0
2014-Jul-24 12:29N 53°38' W 000°12'0 0.0
2014-Jul-24 11:32N 53°38' W 000°12'0 0.0
2014-Jul-24 10:26N 53°38' W 000°12'0 0.0
2014-Jul-24 09:29N 53°38' W 000°12'0 0.0
2014-Jul-24 08:23N 53°38' W 000°12'0 0.0
2014-Jul-24 07:32N 53°38' W 000°12'0 0.0
2014-Jul-24 06:32N 53°38' W 000°12'0 0.0
2014-Jul-24 05:23N 53°38' W 000°12'0 0.0
2014-Jul-24 04:26N 53°38' W 000°12'0 0.0
2014-Jul-24 03:29N 53°38' W 000°12'0 0.0
2014-Jul-24 02:32N 53°38' W 000°12'0 0.0
2014-Jul-24 01:23N 53°38' W 000°12'0 0.0
2014-Jul-24 00:32N 53°38' W 000°12'0 0.0
2014-Jul-23 23:32N 53°38' W 000°12'0 0.0
2014-Jul-23 22:26N 53°38' W 000°12'0 0.0
2014-Jul-23 21:32N 53°38' W 000°12'0 0.0
2014-Jul-23 20:29N 53°38' W 000°12'0 0.0
2014-Jul-23 19:29N 53°38' W 000°12'0 0.0
2014-Jul-23 18:33N 53°38' W 000°12'1 1.2
2014-Jul-23 17:33N 53°38' W 000°10'9 8.8
2014-Jul-23 16:33N 53°35' E 000°04'10 9.6
2014-Jul-23 15:33N 53°33' E 000°20'4 1.1
2014-Jul-23 12:06N 53°35' E 000°26'0 0.0
2014-Jul-23 10:27N 53°35' E 000°26'0 0.1
2014-Jul-23 09:09N 53°35' E 000°26'0 0.0
2014-Jul-23 08:12N 53°35' E 000°26'2 2.6
2014-Jul-23 07:32N 53°35' E 000°29'10 9.2
2014-Jul-23 06:24N 53°35' E 000°47'7 8.9
2014-Jul-23 05:33N 53°36' E 000°59'9 8.8
2014-Jul-23 04:33N 53°37' E 001°14'9 8.6
2014-Jul-23 03:31N 53°38' E 001°29'8 8.7
2014-Jul-23 02:33N 53°38' E 001°43'9 8.8
2014-Jul-23 01:33N 53°40' E 001°57'29 9.3
2014-Jul-22 22:28N 53°41' E 002°46'9 9.5
2014-Jul-22 21:29N 53°42' E 003°02'10 9.8
2014-Jul-22 20:29N 53°43' E 003°18'10 9.6
2014-Jul-22 19:25N 53°45' E 003°35'21 9.3
2014-Jul-22 17:12N 53°47' E 004°10'15 8.9
2014-Jul-22 15:31N 53°48' E 004°35'8 8.7
2014-Jul-22 14:33N 53°48' E 004°49'9 8.7
2014-Jul-22 13:33N 53°48' E 005°04'9 9.0
2014-Jul-22 12:33N 53°49' E 005°19'10 9.8
2014-Jul-22 11:33N 53°50' E 005°36'1110.7
2014-Jul-22 10:33N 53°51' E 005°54'1010.4
2014-Jul-22 09:33N 53°52' E 006°12'1210.3
2014-Jul-22 08:25N 53°52' E 006°31'37 9.4
2014-Jul-22 04:33N 54°00' E 007°32'9 8.9
2014-Jul-22 03:33N 54°02' E 007°47'9 9.2
2014-Jul-22 02:33N 54°01' E 008°02'1010.1
2014-Jul-22 01:33N 54°00' E 008°19'1211.6
2014-Jul-22 00:33N 53°57' E 008°38'1211.7
2014-Jul-21 23:33N 53°51' E 008°55'1312.5
2014-Jul-21 22:32N 53°52' E 009°17'10 9.8
2014-Jul-21 21:30N 53°44' E 009°27'8 8.4
2014-Jul-21 20:33N 53°37' E 009°33'2 9.0
2014-Jul-21 20:18N 53°36' E 009°36'6 8.4
2014-Jul-21 19:33N 53°34' E 009°46'7 7.2
2014-Jul-21 18:33N 53°30' E 009°57'0 0.1
2014-Jul-21 17:33N 53°30' E 009°57'0 0.0
2014-Jul-21 15:33N 53°30' E 009°57'0 0.0
2014-Jul-21 14:33N 53°30' E 009°57'0 0.0
2014-Jul-21 13:33N 53°30' E 009°57'0 0.0
2014-Jul-21 12:33N 53°30' E 009°57'0 0.0
2014-Jul-21 11:33N 53°30' E 009°57'0 0.0
2014-Jul-21 10:33N 53°30' E 009°57'0 0.0
2014-Jul-21 09:33N 53°30' E 009°57'0 0.0
2014-Jul-21 08:33N 53°30' E 009°57'0 0.0
2014-Jul-21 07:33N 53°30' E 009°57'0 0.0
2014-Jul-21 06:29N 53°30' E 009°57'0 0.0
2014-Jul-21 05:33N 53°30' E 009°57'0 0.0
2014-Jul-21 04:33N 53°30' E 009°57'0 0.0
2014-Jul-21 03:33N 53°30' E 009°57'0 0.0
2014-Jul-21 02:33N 53°30' E 009°57'1 1.2
2014-Jul-21 01:33N 53°31' E 009°56'8 8.4
2014-Jul-21 00:33N 53°34' E 009°43'10 9.0
2014-Jul-20 23:28N 53°40' E 009°30'  
Track history (hours):
 
Tides and Currents Weather Stations Pressure Air Temp Water Temp Dewpoint Dewpoint Depression Visibility Wind Speed Wind Dir Waves Ship Positions

Cfl Racer

Last reported at 2014-Jul-30 22:33 UTC. Time now 2014-Jul-31 19:43 UTC.
Position N 49°04' W 003°00'.

Length 83 m; draft 3.2 m.

Type: Cargo ship. MMSI: 306762000.

Date/timePositionNaut miles runAvg speedWind from/ knotsBaromVisibWave heightAir tempDewpointWater temp
2014-Jul-30 22:33N 49°04' W 003°00'10 9.9
2014-Jul-30 21:33N 48°57' W 002°50'9 8.9
2014-Jul-30 20:33N 48°49' W 002°44'16 8.1
2014-Jul-30 18:33N 48°33' W 002°42'1 0.3
2014-Jul-30 16:33N 48°32' W 002°43'0 0.0
2014-Jul-30 15:33N 48°32' W 002°43'0 0.0
2014-Jul-30 12:21N 48°32' W 002°43'0 0.0
2014-Jul-30 09:14N 48°32' W 002°43'0 0.0
2014-Jul-30 08:33N 48°32' W 002°43'0 0.0
2014-Jul-30 07:33N 48°32' W 002°43'173 4.1
2014-Jul-28 13:33N 50°35' E 000°25'1110.7
2014-Jul-28 12:33N 50°41' E 000°39'3410.5
2014-Jul-28 09:18N 51°02' E 001°22'1013.6
2014-Jul-28 08:33N 51°09' E 001°32'1312.6
2014-Jul-28 07:33N 51°22' E 001°33'1111.2
2014-Jul-28 06:34N 51°29' E 001°19'1111.3
2014-Jul-28 05:33N 51°29' E 001°01'1212.3
2014-Jul-28 04:33N 51°30' E 000°41'1211.8
2014-Jul-28 03:34N 51°27' E 000°23'8 8.2
2014-Jul-28 02:34N 51°30' E 000°10'0 0.1
2014-Jul-28 01:32N 51°30' E 000°10'0 0.0
2014-Jul-28 00:32N 51°30' E 000°10'0 0.0
2014-Jul-27 23:32N 51°30' E 000°10'0 0.0
2014-Jul-27 22:32N 51°30' E 000°10'0 0.0
2014-Jul-27 21:32N 51°30' E 000°10'0 0.0
2014-Jul-27 20:32N 51°30' E 000°10'0 0.0
2014-Jul-27 19:32N 51°30' E 000°10'0 0.0
2014-Jul-27 18:32N 51°30' E 000°10'0 0.0
2014-Jul-27 17:32N 51°30' E 000°10'0 0.0
2014-Jul-27 16:29N 51°30' E 000°10'0 0.0
2014-Jul-27 15:32N 51°30' E 000°10'0 0.0
2014-Jul-27 14:32N 51°30' E 000°10'0 0.0
2014-Jul-27 13:32N 51°30' E 000°10'0 0.0
2014-Jul-27 12:32N 51°30' E 000°10'0 0.0
2014-Jul-27 11:32N 51°30' E 000°10'0 0.0
2014-Jul-27 10:32N 51°30' E 000°10'0 0.0
2014-Jul-27 09:29N 51°30' E 000°10'0 0.0
2014-Jul-27 08:32N 51°30' E 000°10'0 0.0
2014-Jul-27 07:29N 51°30' E 000°10'0 0.0
2014-Jul-27 06:32N 51°30' E 000°10'0 0.0
2014-Jul-27 05:32N 51°30' E 000°10'0 0.0
2014-Jul-27 04:32N 51°30' E 000°10'0 0.0
2014-Jul-27 03:32N 51°30' E 000°10'0 0.0
2014-Jul-27 02:29N 51°30' E 000°10'0 0.1
2014-Jul-27 01:30N 51°30' E 000°11'0 0.0
2014-Jul-27 00:33N 51°30' E 000°11'0 0.0
2014-Jul-26 23:33N 51°30' E 000°11'0 0.0
2014-Jul-26 22:33N 51°30' E 000°11'0 0.0
2014-Jul-26 21:33N 51°30' E 000°11'0 0.0
2014-Jul-26 20:33N 51°30' E 000°11'0 0.1
2014-Jul-26 19:33N 51°29' E 000°11'0 0.0
2014-Jul-26 18:33N 51°29' E 000°11'0 0.0
2014-Jul-26 17:33N 51°29' E 000°11'0 0.0
2014-Jul-26 16:33N 51°29' E 000°11'0 0.0
2014-Jul-26 15:33N 51°29' E 000°11'0 0.0
2014-Jul-26 14:33N 51°29' E 000°11'6 6.1
2014-Jul-26 13:33N 51°27' E 000°20'6 6.3
2014-Jul-26 12:33N 51°30' E 000°29'9 8.9
2014-Jul-26 11:33N 51°30' E 000°43'10 9.7
2014-Jul-26 10:33N 51°31' E 000°59'0 0.4
2014-Jul-26 09:33N 51°31' E 000°59'0 0.0
2014-Jul-26 08:32N 51°31' E 000°59'0 0.0
2014-Jul-26 06:24N 51°31' E 000°60'0 0.0
2014-Jul-26 05:27N 51°31' E 000°60'0 0.0
2014-Jul-26 04:27N 51°31' E 000°60'0 0.0
2014-Jul-26 03:30N 51°31' E 000°60'0 0.0
2014-Jul-26 02:33N 51°31' E 000°60'0 0.0
2014-Jul-26 01:33N 51°31' E 000°60'0 0.1
2014-Jul-26 00:26N 51°31' E 000°59'0 0.1
2014-Jul-25 23:33N 51°31' E 000°59'0 0.0
2014-Jul-25 22:32N 51°31' E 000°59'0 0.0
2014-Jul-25 21:32N 51°31' E 000°59'0 0.0
2014-Jul-25 20:32N 51°31' E 000°59'0 0.0
2014-Jul-25 19:32N 51°31' E 000°59'0 0.0
2014-Jul-25 18:32N 51°31' E 000°60'0 0.1
2014-Jul-25 17:26N 51°31' E 000°60'0 0.0
2014-Jul-25 16:26N 51°31' E 000°60'0 0.0
2014-Jul-25 15:32N 51°31' E 000°60'0 0.0
2014-Jul-25 14:32N 51°31' E 000°60'0 0.0
2014-Jul-25 13:23N 51°31' E 000°60'0 0.0
2014-Jul-25 12:34N 51°31' E 000°60'6 5.8
2014-Jul-25 11:34N 51°34' E 001°07'1110.9
2014-Jul-25 10:34N 51°41' E 001°20'1211.7
2014-Jul-25 09:34N 51°49' E 001°35'10 9.9
2014-Jul-25 08:34N 51°58' E 001°41'1312.8
2014-Jul-25 07:34N 52°11' E 001°45'1312.8
2014-Jul-25 06:34N 52°23' E 001°49'1313.3
2014-Jul-25 05:33N 52°37' E 001°53'1312.7
2014-Jul-25 04:34N 52°47' E 001°42'1211.7
2014-Jul-25 03:34N 52°56' E 001°29'1110.7
2014-Jul-25 02:33N 53°01' E 001°13'1110.0
2014-Jul-25 01:26N 53°07' E 000°58'9 9.8
2014-Jul-25 00:31N 53°13' E 000°46'1010.0
2014-Jul-24 23:33N 53°20' E 000°35'1010.2
2014-Jul-24 22:34N 53°27' E 000°24'1010.0
2014-Jul-24 21:34N 53°33' E 000°09'1212.2
2014-Jul-24 20:33N 53°38' W 000°09'1 1.4
2014-Jul-24 19:34N 53°38' W 000°12'0 0.0
2014-Jul-24 18:32N 53°38' W 000°12'0 0.0
2014-Jul-24 17:29N 53°38' W 000°12'0 0.0
2014-Jul-24 16:29N 53°38' W 000°12'0 0.0
2014-Jul-24 15:29N 53°38' W 000°12'0 0.0
2014-Jul-24 14:32N 53°38' W 000°12'0 0.0
2014-Jul-24 13:26N 53°38' W 000°12'0 0.0
2014-Jul-24 12:29N 53°38' W 000°12'0 0.0
2014-Jul-24 11:32N 53°38' W 000°12'0 0.0
2014-Jul-24 10:26N 53°38' W 000°12'0 0.0
2014-Jul-24 09:29N 53°38' W 000°12'0 0.0
2014-Jul-24 08:23N 53°38' W 000°12'0 0.0
2014-Jul-24 07:32N 53°38' W 000°12'0 0.0
2014-Jul-24 06:32N 53°38' W 000°12'0 0.0
2014-Jul-24 05:23N 53°38' W 000°12'0 0.0
2014-Jul-24 04:26N 53°38' W 000°12'0 0.0
2014-Jul-24 03:29N 53°38' W 000°12'0 0.0
2014-Jul-24 02:32N 53°38' W 000°12'0 0.0
2014-Jul-24 01:23N 53°38' W 000°12'0 0.0
2014-Jul-24 00:32N 53°38' W 000°12'0 0.0
2014-Jul-23 23:32N 53°38' W 000°12'0 0.0
2014-Jul-23 22:26N 53°38' W 000°12'0 0.0
2014-Jul-23 21:32N 53°38' W 000°12'0 0.0
2014-Jul-23 20:29N 53°38' W 000°12'0 0.0
2014-Jul-23 19:29N 53°38' W 000°12'0 0.0
2014-Jul-23 18:33N 53°38' W 000°12'1 1.2
2014-Jul-23 17:33N 53°38' W 000°10'9 8.8
2014-Jul-23 16:33N 53°35' E 000°04'10 9.6
2014-Jul-23 15:33N 53°33' E 000°20'4 1.1
2014-Jul-23 12:06N 53°35' E 000°26'0 0.0
2014-Jul-23 10:27N 53°35' E 000°26'0 0.1
2014-Jul-23 09:09N 53°35' E 000°26'0 0.0
2014-Jul-23 08:12N 53°35' E 000°26'2 2.6
2014-Jul-23 07:32N 53°35' E 000°29'10 9.2
2014-Jul-23 06:24N 53°35' E 000°47'7 8.9
2014-Jul-23 05:33N 53°36' E 000°59'9 8.8
2014-Jul-23 04:33N 53°37' E 001°14'9 8.6
2014-Jul-23 03:31N 53°38' E 001°29'8 8.7
2014-Jul-23 02:33N 53°38' E 001°43'9 8.8
2014-Jul-23 01:33N 53°40' E 001°57'29 9.3
2014-Jul-22 22:28N 53°41' E 002°46'9 9.5
2014-Jul-22 21:29N 53°42' E 003°02'10 9.8
2014-Jul-22 20:29N 53°43' E 003°18'10 9.6
2014-Jul-22 19:25N 53°45' E 003°35'21 9.3
2014-Jul-22 17:12N 53°47' E 004°10'15 8.9
2014-Jul-22 15:31N 53°48' E 004°35'8 8.7
2014-Jul-22 14:33N 53°48' E 004°49'9 8.7
2014-Jul-22 13:33N 53°48' E 005°04'9 9.0
2014-Jul-22 12:33N 53°49' E 005°19'10 9.8
2014-Jul-22 11:33N 53°50' E 005°36'1110.7
2014-Jul-22 10:33N 53°51' E 005°54'1010.4
2014-Jul-22 09:33N 53°52' E 006°12'1210.3
2014-Jul-22 08:25N 53°52' E 006°31'37 9.4
2014-Jul-22 04:33N 54°00' E 007°32'9 8.9
2014-Jul-22 03:33N 54°02' E 007°47'9 9.2
2014-Jul-22 02:33N 54°01' E 008°02'1010.1
2014-Jul-22 01:33N 54°00' E 008°19'1211.6
2014-Jul-22 00:33N 53°57' E 008°38'1211.7
2014-Jul-21 23:33N 53°51' E 008°55'1312.5
2014-Jul-21 22:32N 53°52' E 009°17'10 9.8
2014-Jul-21 21:30N 53°44' E 009°27'8 8.4
2014-Jul-21 20:33N 53°37' E 009°33'2 9.0
2014-Jul-21 20:18N 53°36' E 009°36'6 8.4
2014-Jul-21 19:33N 53°34' E 009°46'7 7.2
2014-Jul-21 18:33N 53°30' E 009°57'0 0.1
2014-Jul-21 17:33N 53°30' E 009°57'0 0.0
2014-Jul-21 15:33N 53°30' E 009°57'0 0.0
2014-Jul-21 14:33N 53°30' E 009°57'0 0.0
2014-Jul-21 13:33N 53°30' E 009°57'0 0.0
2014-Jul-21 12:33N 53°30' E 009°57'0 0.0
2014-Jul-21 11:33N 53°30' E 009°57'0 0.0
2014-Jul-21 10:33N 53°30' E 009°57'0 0.0
2014-Jul-21 09:33N 53°30' E 009°57'0 0.0
2014-Jul-21 08:33N 53°30' E 009°57'0 0.0
2014-Jul-21 07:33N 53°30' E 009°57'0 0.0
2014-Jul-21 06:29N 53°30' E 009°57'0 0.0
2014-Jul-21 05:33N 53°30' E 009°57'0 0.0
2014-Jul-21 04:33N 53°30' E 009°57'0 0.0
2014-Jul-21 03:33N 53°30' E 009°57'0 0.0
2014-Jul-21 02:33N 53°30' E 009°57'1 1.2
2014-Jul-21 01:33N 53°31' E 009°56'8 8.4
2014-Jul-21 00:33N 53°34' E 009°43'10 9.0
2014-Jul-20 23:28N 53°40' E 009°30'  

Dump ship's entire track history